This is the latest recevied weather packets stored in our database for station/object WB4YDL. If no packets are shown the sender has not sent any weather packets the latest 10 day(s).
| Time | Temp. | Humidity | Pressure | Rain* | Wind** | Luminosity | Snow |
|---|---|---|---|---|---|---|---|
| 1777489261 | 20° C | 71% | 1010 hPa | 0 mm | - | 911 W/m² | - |
| 1777488957 | 20° C | 73% | 1010 hPa | 0 mm | - | 873 W/m² | - |
| 1777488655 | 19.44° C | 74% | 1010.1 hPa | 0 mm | - | 224 W/m² | - |
| 1777488352 | 19.44° C | 75% | 1010.1 hPa | 0 mm | - | 823 W/m² | - |
| 1777488051 | 19.44° C | 75% | 1010.4 hPa | 0 mm | - | 938 W/m² | - |
| 1777487748 | 18.89° C | 78% | 1010.5 hPa | 0 mm | - | 799 W/m² | - |
| 1777487445 | 18.89° C | 77% | 1010.2 hPa | 0 mm | - | 295 W/m² | - |
| 1777487143 | 19.44° C | 74% | 1010.1 hPa | 0 mm | - | 773 W/m² | - |
| 1777486838 | 18.89° C | 76% | 1010.3 hPa | 0 mm | - | 703 W/m² | - |
| 1777486536 | 18.89° C | 80% | 1010.4 hPa | 1.27 mm | - | 629 W/m² | - |
| 1777486234 | 18.89° C | 78% | 1010.2 hPa | 1.27 mm | - | 390 W/m² | - |
| 1777485931 | 18.89° C | 80% | 1010.6 hPa | 0 mm | - | 861 W/m² | - |
| 1777485627 | 18.33° C | 80% | 1010.6 hPa | 0 mm | - | 675 W/m² | - |
| 1777485322 | 18.33° C | 81% | 1010.8 hPa | 0 mm | - | 718 W/m² | - |
| 1777485019 | 18.33° C | 82% | 1010.6 hPa | 0 mm | - | 414 W/m² | - |
| 1777484716 | 17.78° C | 83% | 1010.9 hPa | 0 mm | - | 508 W/m² | - |
| 1777484412 | 18.33° C | 80% | 1010.7 hPa | 0 mm | - | 261 W/m² | - |
| 1777484109 | 18.33° C | 78% | 1010.9 hPa | 0 mm | - | 921 W/m² | - |
| 1777483805 | 18.33° C | 78% | 1011.1 hPa | 0 mm | - | 485 W/m² | - |
| 1777483502 | 18.33° C | 82% | 1010.9 hPa | 0 mm | - | 373 W/m² | - |
| 1777483196 | 17.78° C | 79% | 1011.2 hPa | 0 mm | - | 468 W/m² | - |
| 1777482893 | 17.78° C | 81% | 1011 hPa | 0 mm | - | 311 W/m² | - |
| 1777482589 | 17.78° C | 80% | 1011 hPa | 0 mm | - | 837 W/m² | - |
| 1777482286 | 18.33° C | 80% | 1011.3 hPa | 0 mm | - | 433 W/m² | - |
| 1777481983 | 17.78° C | 84% | 1011.2 hPa | 1.78 mm | - | 888 W/m² | - |
* Rain latest hour (hover to see other rain measurements)
** Current wind speed in m/s (hover to see current wind gust speed)